EW0941 Weather Reports


time (UTC)temp
F
wind
direction
speed
knots
gust
knots
rain 1hr
in
rain 24hr
in
rain mn
in
humidity
%
barometer
mb
20260506003057 58 263 0.0 0.0 0.00 0.00 0.00 76 1007.6
20260506002555 59 263 0.0 0.0 0.00 0.00 0.00 75 1007.4
20260506002056 59 263 0.0 0.0 0.00 0.00 0.00 75 1007.1
20260506001556 59 263 0.0 0.0 0.00 0.00 0.00 74 1006.9
20260506001054 59 263 0.0 0.0 0.00 0.00 0.00 74 1006.6
20260506000555 59 263 0.0 0.0 0.00 0.00 0.00 74 1006.4
20260506000054 60 263 0.0 0.0 0.00 0.00 0.00 73 1006.3
20260505235553 60 263 0.0 0.0 0.00 0.00 0.00 73 1006.7
20260505235053 60 263 0.0 0.0 0.00 0.00 0.00 73 1006.9
20260505234613 61 263 0.0 0.0 0.00 0.00 0.00 73 1007.0
20260505234052 61 263 0.0 0.0 0.00 0.00 0.00 72 1006.9
20260505233552 60 263 0.0 0.0 0.00 0.00 0.00 72 1006.9
20260505233052 60 263 0.0 0.0 0.00 0.00 0.00 73 1006.7
20260505232552 60 263 0.0 0.0 0.00 0.00 0.00 73 1006.8
20260505232052 60 268 0.0 0.0 0.00 0.00 0.00 73 1006.8
20260505231552 60 268 0.0 0.9 0.00 0.00 0.00 73 1006.7
20260505231051 60 312 0.0 0.9 0.00 0.00 0.00 73 1006.8
20260505230551 59 205 0.0 0.9 0.00 0.00 0.00 73 1006.9
20260505230053 59 234 0.0 0.9 0.00 0.00 0.00 73 1005.5
20260505225552 59 64 0.0 0.9 0.00 0.00 0.00 74 1005.1
20260505225052 59 263 0.0 0.9 0.00 0.00 0.00 74 1005.1
20260505224551 59 166 0.0 0.9 0.00 0.00 0.00 74 1005.0
20260505224050 59 180 0.0 0.0 0.00 0.00 0.00 74 1005.0
20260505223550 59 159 0.0 0.0 0.00 0.00 0.00 73 1005.1
20260505223100 59 279 0.0 0.0 0.00 0.00 0.00 73 1005.1
20260505222550 59 142 0.0 0.0 0.00 0.00 0.00 73 1005.0
20260505222050 59 138 0.0 0.9 0.00 0.00 0.00 73 1004.7
20260505221604 59 142 0.0 0.9 0.00 0.00 0.00 73 1004.7
20260505221049 59 240 0.0 0.0 0.00 0.00 0.00 73 1004.7
20260505220553 59 271 0.0 0.0 0.00 0.00 0.00 73 1004.7
20260505220115 59 251 0.0 0.0 0.00 0.00 0.00 73 1004.7
20260505215549 59 224 0.0 0.0 0.00 0.00 0.00 73 1004.7
20260505215049 59 118 0.0 0.9 0.00 0.00 0.00 73 1004.5
20260505214604 59 164 0.0 0.9 0.00 0.00 0.00 73 1004.6
20260505214049 59 266 0.0 0.9 0.00 0.00 0.00 73 1004.6
20260505213551 60 209 0.0 0.9 0.00 0.00 0.00 72 1004.6
20260505213049 60 80 0.0 0.9 0.00 0.00 0.00 73 1004.5
20260505212548 60 195 0.0 0.0 0.00 0.00 0.00 72 1004.4
20260505212048 60 135 0.0 0.0 0.00 0.00 0.00 72 1004.5
20260505211558 61 261 0.0 0.0 0.00 0.00 0.00 72 1004.5
20260505211047 61 127 0.0 0.0 0.00 0.00 0.00 71 1004.2
20260505210552 61 184 0.0 0.0 0.00 0.00 0.00 71 1004.3
20260505210047 61 302 0.0 0.0 0.00 0.00 0.00 71 1004.4
20260505205547 61 250 0.0 0.9 0.00 0.00 0.00 71 1004.4
20260505205047 61 113 0.0 0.9 0.00 0.00 0.00 72 1004.4
20260505204546 61 84 0.0 0.9 0.00 0.00 0.00 72 1004.5
20260505204045 61 284 0.0 0.9 0.00 0.00 0.00 72 1004.4
20260505203544 61 134 0.0 0.9 0.00 0.00 0.00 72 1004.5
20260505203046 61 228 0.0 0.9 0.00 0.00 0.00 72 1004.4
20260505202545 61 245 0.0 0.0 0.00 0.00 0.00 72 1004.4
20260505202043 61 114 0.0 0.9 0.00 0.00 0.00 72 1004.5
20260505201543 61 178 0.0 0.9 0.00 0.00 0.00 72 1004.6
20260505201042 61 126 0.0 0.9 0.00 0.00 0.00 71 1004.7
20260505200542 61 228 0.0 0.9 0.00 0.00 0.00 72 1004.7
20260505200046 61 242 0.0 0.9 0.00 0.00 0.00 71 1004.7
20260505195540 62 271 0.0 0.0 0.00 0.00 0.00 71 1004.8
20260505195040 62 313 0.0 0.9 0.00 0.00 0.00 70 1005.0
20260505194540 62 160 0.0 0.9 0.00 0.00 0.00 70 1004.8
20260505194038 62 243 0.0 0.9 0.00 0.00 0.00 71 1004.9
20260505193537 62 198 0.0 0.9 0.00 0.00 0.00 71 1005.0
20260505193037 62 84 0.0 0.9 0.00 0.00 0.00 69 1005.0
20260505192536 63 69 0.0 0.9 0.00 0.00 0.00 69 1005.1
20260505192036 63 229 0.0 0.9 0.00 0.00 0.00 67 1005.1
20260505191536 64 65 0.0 0.0 0.00 0.00 0.00 67 1005.4
20260505191035 64 132 0.0 0.0 0.00 0.00 0.00 67 1005.5
20260505190536 64 319 0.0 0.0 0.00 0.00 0.00 66 1005.4
20260505190046 65 241 0.0 0.0 0.00 0.00 0.00 66 1005.4
20260505185533 65 128 0.0 0.9 0.00 0.00 0.00 68 1005.5
20260505185033 65 267 0.0 0.9 0.00 0.00 0.00 67 1005.5
20260505184534 64 80 0.0 0.0 0.00 0.00 0.00 67 1005.6
20260505184032 64 245 0.0 0.9 0.00 0.00 0.00 69 1005.7
20260505183531 63 238 0.0 0.9 0.00 0.00 0.00 68 1005.6
20260505183042 63 5 0.0 1.7 0.00 0.00 0.00 68 1005.8
20260505182531 64 277 0.0 1.7 0.00 0.00 0.00 66 1005.9
20260505182031 65 91 0.0 0.9 0.00 0.00 0.00 66 1005.9
20260505181531 65 228 0.0 0.0 0.00 0.00 0.00 66 1006.0
20260505181030 65 242 0.0 0.0 0.00 0.00 0.00 68 1005.8
20260505180530 65 240 0.0 0.9 0.00 0.00 0.00 67 1005.8
20260505180029 64 269 0.0 0.9 0.00 0.00 0.00 68 1005.8
20260505175529 65 158 0.0 0.9 0.00 0.00 0.00 66 1005.9
20260505175028 64 268 0.0 0.9 0.00 0.00 0.00 70 1006.0
20260505174527 64 115 0.0 0.9 0.00 0.00 0.00 68 1006.1
20260505174025 64 229 0.0 0.9 0.00 0.00 0.00 67 1006.3
20260505173528 65 145 0.0 0.0 0.00 0.00 0.00 67 1006.4
20260505173027 65 221 0.0 0.0 0.00 0.00 0.00 66 1006.4
20260505172524 66 197 0.0 0.0 0.00 0.00 0.00 65 1006.5
20260505172023 67 206 0.0 0.0 0.00 0.00 0.00 65 1006.7
20260505171523 66 175 0.0 0.0 0.00 0.00 0.00 66 1006.6
20260505171025 66 185 0.0 0.0 0.00 0.00 0.00 65 1006.6
20260505170520 66 244 0.0 0.0 0.00 0.00 0.00 67 1006.7
20260505170020 65 257 0.0 0.0 0.00 0.00 0.00 66 1006.9
20260505165520 65 198 0.0 0.0 0.00 0.00 0.00 66 1006.9
20260505165019 65 150 0.0 0.0 0.00 0.00 0.00 67 1007.0
20260505164519 65 249 0.0 0.9 0.00 0.00 0.00 65 1007.0
20260505164017 65 71 0.0 0.9 0.00 0.00 0.00 66 1007.2
20260505163516 65 178 0.0 0.0 0.00 0.00 0.00 65 1007.2
20260505163017 66 246 0.0 0.0 0.00 0.00 0.00 64 1007.3
20260505162516 66 140 0.0 0.9 0.00 0.00 0.00 67 1007.3
20260505162016 66 178 0.0 0.9 0.00 0.00 0.00 65 1007.2
20260505161515 66 130 0.0 0.0 0.00 0.00 0.00 65 1007.3
20260505161015 66 279 0.0 0.0 0.00 0.00 0.00 66 1007.5
20260505160513 65 173 0.0 0.0 0.00 0.00 0.00 67 1007.5
20260505153004 61 145 0.0 0.0 0.00 0.00 0.00 73 1008.2
20260505152502 60 183 0.0 0.0 0.00 0.00 0.00 74 1008.3
20260505152002 59 160 0.0 0.9 0.00 0.00 0.00 75 1008.4
20260505151503 59 120 0.0 0.9 0.00 0.00 0.00 75 1008.6
20260505151100 58 273 0.0 0.0 0.00 0.00 0.00 78 1008.5
20260505151001 58 274 0.0 0.0 0.00 0.00 0.00 78 1008.6
20260505150602 58 178 0.0 0.0 0.00 0.00 0.00 77 1008.5
20260505140556 58 207 0.0 0.0 0.00 0.00 0.00 73 1008.0
20260505124553 55 209 0.0 0.0 0.00 0.00 0.00 78 1008.2
20260505124047 55 199 0.0 0.0 0.00 0.00 0.00 78 1008.2
20260505123544 55 175 0.0 0.0 0.00 0.00 0.00 78 1008.2
20260505123044 54 171 0.0 0.0 0.00 0.00 0.00 80 1008.3
20260505122543 54 171 0.0 0.0 0.00 0.00 0.00 79 1008.3
20260505122043 54 190 0.0 0.0 0.00 0.00 0.00 80 1008.3
20260505121544 53 210 0.0 0.0 0.00 0.00 0.00 80 1008.4
20260505121043 53 144 0.0 0.0 0.00 0.00 0.00 81 1008.4
20260505120543 53 144 0.0 0.0 0.00 0.00 0.00 81 1008.4
20260505120050 53 142 0.0 0.0 0.00 0.00 0.00 81 1008.5
20260505115544 53 132 0.0 0.0 0.00 0.00 0.00 81 1008.6
20260505115042 52 189 0.0 0.0 0.00 0.00 0.00 81 1008.6
20260505114546 52 188 0.0 0.0 0.00 0.00 0.00 83 1008.8
20260505114040 51 179 0.0 0.0 0.00 0.00 0.00 83 1008.7
20260505113544 51 179 0.0 0.0 0.00 0.00 0.00 84 1008.7
20260505113041 50 164 0.0 0.0 0.00 0.00 0.00 86 1008.6
20260505112543 50 164 0.0 0.0 0.00 0.00 0.00 86 1008.6
20260505112041 49 164 0.0 0.0 0.00 0.00 0.00 88 1008.6
20260505111540 48 164 0.0 0.0 0.00 0.00 0.00 89 1008.7
20260505111039 48 164 0.0 0.0 0.00 0.00 0.00 90 1008.6
20260505110542 47 164 0.0 0.0 0.00 0.00 0.00 91 1008.7
20260505102036 44 209 0.0 0.0 0.00 0.00 0.00 91 1008.5
20260505101542 44 209 0.0 0.0 0.00 0.00 0.00 91 1008.5
20260505101040 44 209 0.0 0.0 0.00 0.00 0.00 91 1008.6
20260505100537 44 209 0.0 0.0 0.00 0.00 0.00 90 1008.6
20260505100039 44 209 0.0 0.0 0.00 0.00 0.00 90 1008.5
20260505095536 44 209 0.0 0.0 0.00 0.00 0.00 90 1008.5
20260505095035 44 209 0.0 0.0 0.00 0.00 0.00 90 1008.5
20260505094534 44 209 0.0 0.0 0.00 0.00 0.00 90 1008.4
20260505094034 44 209 0.0 0.0 0.00 0.00 0.00 90 1008.5
20260505093534 44 209 0.0 0.0 0.00 0.00 0.00 90 1008.5
20260505093038 44 209 0.0 0.0 0.00 0.00 0.00 90 1008.5
20260505092535 44 209 0.0 0.0 0.00 0.00 0.00 90 1008.5
20260505092033 44 209 0.0 0.0 0.00 0.00 0.00 90 1008.5
20260505091534 44 209 0.0 0.0 0.00 0.00 0.00 90 1008.5
20260505091033 45 209 0.0 0.0 0.00 0.00 0.00 90 1008.5
20260505090532 45 209 0.0 0.0 0.00 0.00 0.00 90 1008.6
20260505090035 45 209 0.0 0.0 0.00 0.00 0.00 89 1008.6
20260505085532 45 209 0.0 0.0 0.00 0.00 0.00 89 1008.6
20260505085032 45 209 0.0 0.0 0.00 0.00 0.00 89 1008.7
20260505084541 45 209 0.0 0.0 0.00 0.00 0.00 89 1008.7
20260505084031 45 209 0.0 0.0 0.00 0.00 0.00 89 1008.7
20260505083531 45 209 0.0 0.0 0.00 0.00 0.00 89 1008.7
20260505083030 45 209 0.0 0.0 0.00 0.00 0.00 88 1008.7
20260505082530 45 209 0.0 0.0 0.00 0.00 0.00 88 1008.7
20260505082030 45 209 0.0 0.0 0.00 0.00 0.00 87 1008.7
20260505081528 45 209 0.0 0.0 0.00 0.00 0.00 87 1008.7
20260505081027 46 209 0.0 0.0 0.00 0.00 0.00 87 1008.7
20260505080525 46 209 0.0 0.0 0.00 0.00 0.00 87 1008.8
20260505080030 46 209 0.0 0.0 0.00 0.00 0.00 87 1008.8
20260505075525 46 209 0.0 0.0 0.00 0.00 0.00 86 1008.8
20260505075027 46 209 0.0 0.0 0.00 0.00 0.00 86 1008.8
20260505074523 47 209 0.0 0.0 0.00 0.00 0.00 85 1008.8
20260505074022 47 209 0.0 0.0 0.00 0.00 0.00 85 1008.8
20260505073521 47 209 0.0 0.0 0.00 0.00 0.00 84 1008.7
20260505073032 47 209 0.0 0.0 0.00 0.00 0.00 84 1008.7
20260505072520 47 209 0.0 0.0 0.00 0.00 0.00 84 1008.7
20260505072018 48 209 0.0 0.0 0.00 0.00 0.00 83 1008.7
20260505071518 48 209 0.0 0.0 0.00 0.00 0.00 83 1008.7
20260505071019 48 209 0.0 0.0 0.00 0.00 0.00 83 1008.7
20260505070517 48 209 0.0 0.0 0.00 0.00 0.00 83 1008.7
20260505070029 48 209 0.0 0.0 0.00 0.00 0.00 83 1008.6
20260505065517 48 209 0.0 0.0 0.00 0.00 0.00 83 1008.6
20260505065017 48 209 0.0 0.0 0.00 0.00 0.00 83 1008.6
20260505064515 48 209 0.0 0.0 0.00 0.00 0.00 82 1008.6
20260505064014 49 209 0.0 0.0 0.00 0.00 0.00 82 1008.6
20260505063513 49 209 0.0 0.0 0.00 0.00 0.00 82 1008.5
20260505063014 49 209 0.0 0.0 0.00 0.00 0.00 81 1008.5
20260505062512 49 209 0.0 0.0 0.00 0.00 0.00 81 1008.6
20260505062010 49 209 0.0 0.0 0.00 0.00 0.00 80 1008.6
20260505061510 50 209 0.0 0.0 0.00 0.00 0.00 79 1008.6
20260505061010 50 209 0.0 0.0 0.00 0.00 0.00 79 1008.7
20260505060510 50 209 0.0 0.0 0.00 0.00 0.00 78 1008.6
20260505060007 51 209 0.0 0.0 0.00 0.00 0.00 77 1008.6
20260505055507 51 209 0.0 0.0 0.00 0.00 0.00 76 1008.6
20260505055007 51 209 0.0 0.0 0.00 0.00 0.00 76 1008.6
20260505054506 52 209 0.0 0.0 0.00 0.00 0.00 75 1008.5
20260505054005 52 209 0.0 0.0 0.00 0.00 0.00 74 1008.6
20260505053506 52 209 0.0 0.0 0.00 0.00 0.00 73 1008.6
20260505053005 53 209 0.0 0.0 0.00 0.00 0.00 72 1008.5
20260505052503 53 209 0.0 0.0 0.00 0.00 0.00 71 1008.4
20260505052007 53 209 0.0 0.0 0.00 0.00 0.00 70 1008.3
20260505051503 54 209 0.0 0.0 0.00 0.00 0.00 70 1008.3
20260505051004 54 209 0.0 0.0 0.00 0.00 0.00 69 1008.3
20260505050504 54 209 0.0 0.0 0.00 0.00 0.00 69 1008.3
20260505041557 51 191 0.0 0.0 0.00 0.00 0.00 76 1007.9
20260505041054 51 191 0.0 0.0 0.00 0.00 0.00 77 1007.8
20260505040550 51 191 0.0 0.0 0.00 0.00 0.00 77 1007.8
20260505040053 51 191 0.0 0.0 0.00 0.00 0.00 78 1007.7
20260505035548 50 175 0.0 0.0 0.00 0.00 0.00 79 1007.6
20260505035053 50 175 0.0 0.0 0.00 0.00 0.00 80 1007.6
20260505034548 50 175 0.0 0.0 0.00 0.00 0.00 80 1007.7
20260505034052 49 175 0.0 0.0 0.00 0.00 0.00 81 1007.7
20260505033547 49 175 0.0 0.0 0.00 0.00 0.00 82 1007.6
20260505033048 49 175 0.0 0.0 0.00 0.00 0.00 83 1007.7
20260505032548 48 173 0.0 0.0 0.00 0.00 0.00 84 1007.7
20260505032049 48 173 0.0 0.0 0.00 0.00 0.00 84 1007.7
20260505031555 48 173 0.0 0.0 0.00 0.00 0.00 84 1007.7
20260505031046 48 173 0.0 0.0 0.00 0.00 0.00 84 1007.7
20260505030546 48 173 0.0 0.0 0.00 0.00 0.00 84 1007.6
20260505030046 48 173 0.0 0.0 0.00 0.00 0.00 83 1007.6
20260505025546 48 173 0.0 0.0 0.00 0.00 0.00 83 1007.6
20260505025045 48 173 0.0 0.0 0.00 0.00 0.00 83 1007.6
20260505024556 48 173 0.0 0.0 0.00 0.00 0.00 83 1007.7
20260505024044 48 173 0.0 0.0 0.00 0.00 0.00 82 1007.6
20260505023644 49 173 0.0 0.0 0.00 0.00 0.00 82 1007.7
20260505023044 49 173 0.0 0.0 0.00 0.00 0.00 82 1007.7
20260505022544 49 173 0.0 0.0 0.00 0.00 0.00 81 1007.6
20260505022045 49 173 0.0 0.0 0.00 0.00 0.00 81 1007.7
20260505021544 49 173 0.0 0.0 0.00 0.00 0.00 81 1007.7
20260505021043 49 173 0.0 0.0 0.00 0.00 0.00 81 1007.6
20260505020543 49 173 0.0 0.0 0.00 0.00 0.00 81 1007.6
20260505020043 49 173 0.0 0.0 0.00 0.00 0.00 81 1007.6
20260505015548 49 173 0.0 0.0 0.00 0.00 0.00 80 1007.7
20260505015043 49 173 0.0 0.0 0.00 0.00 0.00 80 1007.6
20260505014601 49 173 0.0 0.0 0.00 0.00 0.00 79 1007.6
20260505014042 49 173 0.0 0.0 0.00 0.00 0.00 79 1007.6
20260505013541 50 173 0.0 0.0 0.00 0.00 0.00 79 1007.5
20260505013042 50 173 0.0 0.0 0.00 0.00 0.00 78 1007.3
20260505012542 50 173 0.0 0.0 0.00 0.00 0.00 77 1007.3
20260505012043 50 173 0.0 0.0 0.00 0.00 0.00 77 1007.3
20260505011553 50 173 0.0 0.0 0.00 0.00 0.00 76 1007.2
20260505011041 51 173 0.0 0.0 0.00 0.00 0.00 76 1007.2
20260505010541 51 173 0.0 0.0 0.00 0.00 0.00 75 1007.1
20260505010041 51 173 0.0 0.0 0.00 0.00 0.00 75 1007.0
20260505005541 51 173 0.0 0.0 0.00 0.00 0.00 74 1007.0
20260505005041 52 173 0.0 0.0 0.00 0.00 0.00 73 1006.9
20260505004542 52 173 0.0 0.0 0.00 0.00 0.00 72 1006.9
20260505004039 52 173 0.0 0.0 0.00 0.00 0.00 71 1006.8
20260505003543 53 173 0.0 0.0 0.00 0.00 0.00 70 1006.7